TimeCDT,TemperatureF,Dew PointF,Humidity,Sea Level PressureIn,VisibilityMPH,Wind Direction,Wind SpeedMPH,Gust SpeedMPH,PrecipitationIn,Events,Conditions,WindDirDegrees,DateUTC
12:52 AM,80.1,69.1,69,30.00,10.0,South,4.6,-,N/A,,Clear,170,2013-07-09 05:52:00
1:52 AM,79.0,69.1,72,29.99,10.0,SSE,3.5,-,N/A,,Clear,160,2013-07-09 06:52:00
2:52 AM,75.9,69.1,79,30.01,10.0,Calm,Calm,-,N/A,,Clear,0,2013-07-09 07:52:00
3:52 AM,77.0,69.1,76,30.00,10.0,South,4.6,-,N/A,,Clear,180,2013-07-09 08:52:00
4:52 AM,75.9,69.1,79,30.00,10.0,South,4.6,-,N/A,,Clear,190,2013-07-09 09:52:00
5:52 AM,75.9,69.1,79,29.99,10.0,South,4.6,-,N/A,,Clear,190,2013-07-09 10:52:00
6:52 AM,75.9,70.0,82,30.01,10.0,South,4.6,-,N/A,,Clear,180,2013-07-09 11:52:00
7:52 AM,79.0,70.0,74,30.02,10.0,Variable,6.9,-,N/A,,Clear,0,2013-07-09 12:52:00
8:52 AM,82.9,71.1,67,30.02,10.0,South,9.2,-,N/A,,Clear,190,2013-07-09 13:52:00
9:52 AM,87.1,71.1,59,30.00,10.0,South,10.4,17.3,N/A,,Clear,190,2013-07-09 14:52:00
10:52 AM,89.1,70.0,53,30.00,10.0,South,11.5,18.4,N/A,,Clear,180,2013-07-09 15:52:00
11:52 AM,91.9,71.1,50,29.98,10.0,South,11.5,20.7,N/A,,Clear,180,2013-07-09 16:52:00
12:52 PM,95.0,71.1,46,29.97,10.0,South,11.5,19.6,N/A,,Clear,190,2013-07-09 17:52:00
1:52 PM,97.0,70.0,41,29.95,10.0,South,10.4,-,N/A,,Clear,190,2013-07-09 18:52:00
2:52 PM,99.0,69.1,38,29.94,10.0,South,12.7,23.0,N/A,,Clear,190,2013-07-09 19:52:00
3:52 PM,100.0,69.1,37,29.94,10.0,SSW,11.5,18.4,N/A,,Clear,210,2013-07-09 20:52:00
4:52 PM,100.0,69.1,37,29.92,10.0,SSW,13.8,-,N/A,,Clear,210,2013-07-09 21:52:00
5:52 PM,99.0,68.0,36,29.91,10.0,SSW,9.2,-,N/A,,Clear,210,2013-07-09 22:52:00
6:52 PM,97.0,66.9,37,29.90,10.0,South,10.4,-,N/A,,Clear,190,2013-07-09 23:52:00
7:52 PM,93.0,70.0,47,29.88,10.0,South,6.9,-,N/A,,Clear,170,2013-07-10 00:52:00
8:52 PM,90.0,69.1,50,29.89,10.0,South,6.9,-,N/A,,Clear,180,2013-07-10 01:52:00
9:52 PM,88.0,69.1,53,29.91,10.0,South,5.8,-,N/A,,Clear,180,2013-07-10 02:52:00
10:52 PM,84.9,70.0,61,29.93,10.0,South,4.6,-,N/A,,Clear,180,2013-07-10 03:52:00
11:52 PM,82.9,70.0,65,29.94,10.0,South,5.8,-,N/A,,Clear,180,2013-07-10 04:52:00